This demonstration page uses our WeatherBlox Daily Observations layout. Learn more.

Left ArrowRight Arrow

39.92423, -83.80882

Hourly Observations for June 28, 2022

Temp ( °F °C ) Dew Point ( °F °C ) Humidity (%) Winds ( mph kmh ) Pressure ( in mb ) Visibility ( mi km ) Precip ( " mm )
12:56 am 00:56 Clear 59 15 47 8.3 64 64 NNW 6 9 30.23 1024 10 16 0.00 0.00
1:56 am 01:56 Clear 59 15 45 7.2 60 60 N 5 7 30.23 1024 10 16 0.00 0.00
2:56 am 02:56 Clear 56 13.3 45 7.2 67 67 N 3 6 30.23 1024 10 16 0.00 0.00
3:56 am 03:56 Clear 53 11.7 50 10 89 89 Calm 30.23 1024 10 16 0.00 0.00
4:56 am 04:56 Clear 51 10.6 51 10.6 100 100 Calm 30.23 1024 10 16 0.00 0.00
5:56 am 05:56 Clear 49 9.4 49 9.4 100 100 NNW 5 7 30.24 1024 10 16 0.00 0.00
6:56 am 06:56 Sunny 51 10.6 51 10.6 100 100 Calm 30.25 1024 10 16 0.00 0.00
7:56 am 07:56 Sunny 59 15 49 9.4 69 69 Calm 30.26 1025 10 16 0.00 0.00
8:56 am 08:56 Sunny 63 17.2 51 10.6 65 65 NE 5 7 30.26 1025 10 16 0.00 0.00
9:56 am 09:56 Sunny 66 18.9 52 11.1 61 61 NE 5 7 30.27 1025 10 16 0.00 0.00
10:56 am 10:56 Sunny 69 20.6 48 8.9 47 47 VRB 3 6 30.27 1025 10 16 0.00 0.00
11:56 am 11:56 Sunny 72 22.2 49 9.4 44 44 VRB 5 7 30.27 1025 10 16 0.00 0.00
12:56 pm 12:56 Sunny 73 22.8 51 10.6 46 46 Calm 30.27 1025 10 16 0.00 0.00
1:56 pm 13:56 Sunny 75 23.9 49 9.4 40 40 NNE 5 7 30.25 1024 10 16 0.00 0.00
2:56 pm 14:56 Sunny 76 24.4 51 10.6 42 42 VRB 5 7 30.24 1024 10 16 0.00 0.00
3:56 pm 15:56 Sunny 77 25 49 9.4 37 37 VRB 5 7 30.23 1024 10 16 0.00 0.00
4:56 pm 16:56 Sunny 78 25.6 45 7.2 31 31 VRB 3 6 30.22 1023 10 16 0.03 0.76
5:56 pm 17:56 Sunny 78 25.6 46 7.8 32 32 Calm 30.21 1023 10 16 0.00 0.00
6:56 pm 18:56 Sunny 76 24.4 48 8.9 37 37 Calm 30.20 1023 10 16 0.00 0.00
7:56 pm 19:56 Sunny 75 23.9 48 8.9 39 39 Calm 30.19 1022 10 16 0.00 0.00
8:56 pm 20:56 Sunny 70 21.1 58 14.4 66 66 Calm 30.19 1022 10 16 0.00 0.00
9:56 pm 21:56 Clear 64 17.8 54 12.2 70 70 S 3 6 30.19 1022 10 16 0.00 0.00
10:56 pm 22:56 Clear 61 16.1 55 12.8 81 81 Calm 30.20 1023 10 16 0.00 0.00
11:56 pm 23:56 Clear 58 14.4 56 13.3 93 93 Calm 30.21 1023 10 16 0.00 0.00

Powered by AerisWeather